Location: Bakhuizen
(52.8696°N, 5.4575°E)
Time: 23:10:09
(UTC+00:00)

Cosmos 1666 - Pass Details

Date: 11 May 2021
Orbit: 496 x 518 km, 82.5° (Epoch: 24 June)

Event Time Altitude Azimuth Distance (km) Brightness Sun altitude
Rises 20:51:43 0° 349° (N) 2,608 7.5 -10.8°
Reaches altitude 10° 20:53:51 10° 350° (N) 1,716 6.4 -11.0°
Maximum altitude 20:57:37 85° 76° (ENE) 507 2.6 -11.3°
Enters shadow 21:00:35 16° 168° (SSE) 1,386 4.3 -11.6°
